User: anonymous   Login
Location: Poughquag
(41.6090°N, 73.6820°W)
Time: 05:39:39
(UTC-04:00)
Language:

Hubble Space Telescope - Orbit

View from above orbital plane
View from above orbital plane
View from above satellite
View from above satellite

Ground track
Ground track

The orbit is defined by the following mean orbital elements,

1 20580U          26127.97667409 +.00000000 +00000-0 +19110-3 0 00009
2 20580  28.4762 355.2958 0002158  58.4789 301.6017 15.30319964    09
Epoch (UTC): 07 May 2026 23:26:24
Eccentricity: 0.0002158
inclination: 28.4762°
perigee height: 473 km
apogee height: 476 km
right ascension of ascending node: 355.2958°
argument of perigee: 58.4789°
revolutions per day: 15.30319964
mean anomaly at epoch: 301.6017°

The dashed part of the orbit path shows where the satellite is in the earth's shadow,  

DLR